Location: Mesa Verde
(33.6055°N, 114.7275°W)
Time: 19:50:17
(UTC+00:00)

X-37B - Visible Passes

Search period start: 24 September 2021 00:00
Search period end: 04 October 2021 00:00
Orbit: 381 x 393 km, 45.0° (Epoch: 29 August)

Date Brightness Start Highest point End Pass type
(mag) Time Alt. Az. Time Alt. Az. Time Alt. Az.
24 Sep 2.7 12:17:36 15° NW 12:18:21 16° NNW 12:20:26 10° NNE visible
25 Sep 3.7 11:21:55 12° NNE 11:21:55 12° NNE 11:22:21 10° NNE visible
25 Sep 3.3 12:56:21 10° NNW 12:57:12 11° N 12:58:04 10° NNE visible
26 Sep 3.2 11:58:29 12° N 11:58:30 12° N 11:59:56 10° NNE visible
27 Sep 3.4 12:36:42 10° N 12:37:25 11° N 12:38:08 10° NNE visible
28 Sep 3.6 11:39:20 10° N 11:39:20 10° N 11:39:30 10° N visible
29 Sep 3.3 12:16:23 10° NNW 12:17:37 12° N 12:18:50 10° NNE visible
30 Sep 2.8 12:53:57 10° NNW 12:56:24 20° NNE 12:58:49 10° ENE visible
01 Oct 3.1 11:56:59 14° N 11:57:46 15° NNE 11:59:38 10° NE visible
02 Oct 2.1 12:33:46 11° NW 12:36:24 31° NNE 12:39:17 10° E visible
03 Oct 3.1 11:38:21 19° NE 11:38:21 19° NE 11:40:18 10° ENE visible
03 Oct 0.7 13:11:34 10° WNW 13:14:42 62° SW 13:17:49 10° SE visible
